| time (UTC) | temp C | wind direction | speed KPH | gust KPH | rain 1hr cm | rain 24hr cm | rain mn cm | humidity % | barometer mb |
| 20260504041837 | 12 | 144 | 1.6 | 9.7 | 0.00 | 0.00 | 0.00 | 69 | 1019.8 |
| 20260504041336 | 12 | 217 | 3.2 | 12.9 | 0.00 | 0.00 | 0.00 | 70 | 1019.8 |
| 20260504040851 | 12 | 196 | 1.6 | 12.9 | 0.00 | 0.00 | 0.00 | 71 | 1019.9 |
| 20260504040351 | 12 | 203 | 1.6 | 4.8 | 0.00 | 0.00 | 0.00 | 71 | 1019.8 |
| 20260504035847 | 12 | 197 | 1.6 | 4.8 | 0.00 | 0.00 | 0.00 | 71 | 1019.8 |
| 20260504035346 | 12 | 347 | 1.6 | 3.2 | 0.00 | 0.00 | 0.00 | 70 | 1019.8 |
| 20260504034903 | 12 | 215 | 1.6 | 9.7 | 0.00 | 0.00 | 0.00 | 70 | 1019.9 |
| 20260504034402 | 12 | 215 | 1.6 | 9.7 | 0.00 | 0.00 | 0.00 | 71 | 1019.8 |
| 20260504033837 | 12 | 119 | 1.6 | 6.4 | 0.00 | 0.00 | 0.00 | 70 | 1019.9 |
| 20260504033354 | 12 | 229 | 1.6 | 6.4 | 0.00 | 0.00 | 0.00 | 70 | 1019.7 |
| 20260504032847 | 12 | 189 | 1.6 | 11.3 | 0.00 | 0.00 | 0.00 | 70 | 1019.7 |
| 20260504032348 | 12 | 238 | 1.6 | 11.3 | 0.00 | 0.00 | 0.00 | 70 | 1019.7 |
| 20260504031846 | 12 | 215 | 3.2 | 8.0 | 0.00 | 0.00 | 0.00 | 70 | 1019.7 |
| 20260504031346 | 12 | 193 | 3.2 | 8.0 | 0.00 | 0.00 | 0.00 | 70 | 1019.8 |
| 20260504030845 | 12 | 204 | 1.6 | 4.8 | 0.00 | 0.00 | 0.00 | 70 | 1019.8 |
| 20260504030345 | 12 | 204 | 1.6 | 6.4 | 0.00 | 0.00 | 0.00 | 69 | 1019.7 |
| 20260504025838 | 12 | 204 | 1.6 | 6.4 | 0.00 | 0.00 | 0.00 | 68 | 1019.7 |
| 20260504025342 | 12 | 222 | 3.2 | 9.7 | 0.00 | 0.00 | 0.00 | 68 | 1019.5 |
| 20260504024841 | 13 | 231 | 1.6 | 9.7 | 0.00 | 0.00 | 0.00 | 68 | 1019.5 |
| 20260504024340 | 13 | 191 | 1.6 | 6.4 | 0.00 | 0.00 | 0.00 | 67 | 1019.4 |
| 20260504023858 | 13 | 184 | 1.6 | 4.8 | 0.00 | 0.00 | 0.00 | 67 | 1019.3 |
| 20260504023338 | 13 | 200 | 1.6 | 8.0 | 0.00 | 0.00 | 0.00 | 66 | 1019.3 |
| 20260504022849 | 13 | 237 | 3.2 | 8.0 | 0.00 | 0.00 | 0.00 | 65 | 1019.3 |
| 20260504022348 | 13 | 205 | 1.6 | 3.2 | 0.00 | 0.00 | 0.00 | 64 | 1019.3 |
| 20260504021847 | 13 | 205 | 1.6 | 3.2 | 0.00 | 0.00 | 0.00 | 63 | 1019.3 |
| 20260504021348 | 13 | 205 | 1.6 | 3.2 | 0.00 | 0.00 | 0.00 | 61 | 1019.3 |
| 20260504020846 | 13 | 205 | 1.6 | 1.6 | 0.00 | 0.00 | 0.00 | 60 | 1019.3 |
| 20260504020346 | 13 | 205 | 1.6 | 3.2 | 0.00 | 0.00 | 0.00 | 60 | 1019.3 |
| 20260504015841 | 13 | 205 | 1.6 | 3.2 | 0.00 | 0.00 | 0.00 | 59 | 1019.3 |
| 20260504015338 | 14 | 205 | 0.0 | 4.8 | 0.00 | 0.00 | 0.00 | 59 | 1019.3 |
| 20260504014836 | 14 | 205 | 1.6 | 4.8 | 0.00 | 0.00 | 0.00 | 59 | 1019.3 |
| 20260504014356 | 14 | 205 | 1.6 | 3.2 | 0.00 | 0.00 | 0.00 | 59 | 1019.3 |
| 20260504013834 | 14 | 205 | 1.6 | 3.2 | 0.00 | 0.00 | 0.00 | 59 | 1019.2 |
| 20260504013340 | 14 | 205 | 1.6 | 3.2 | 0.00 | 0.00 | 0.00 | 59 | 1019.1 |
| 20260504012834 | 14 | 205 | 1.6 | 3.2 | 0.00 | 0.00 | 0.00 | 59 | 1019.1 |
| 20260504012332 | 14 | 205 | 0.0 | 3.2 | 0.00 | 0.00 | 0.00 | 60 | 1018.9 |
| 20260504011910 | 15 | 205 | 0.0 | 3.2 | 0.00 | 0.00 | 0.00 | 60 | 1018.9 |
| 20260504011348 | 15 | 205 | 1.6 | 3.2 | 0.00 | 0.00 | 0.00 | 61 | 1018.9 |
| 20260504010847 | 15 | 205 | 0.0 | 3.2 | 0.00 | 0.00 | 0.00 | 62 | 1018.8 |
| 20260504010348 | 15 | 205 | 0.0 | 3.2 | 0.00 | 0.00 | 0.00 | 62 | 1018.8 |
| 20260504005843 | 15 | 205 | 0.0 | 1.6 | 0.00 | 0.00 | 0.00 | 61 | 1018.8 |
| 20260504005402 | 15 | 205 | 0.0 | 3.2 | 0.00 | 0.00 | 0.00 | 60 | 1018.8 |
| 20260504004839 | 15 | 205 | 0.0 | 3.2 | 0.00 | 0.00 | 0.00 | 60 | 1018.7 |
| 20260504004335 | 16 | 205 | 0.0 | 1.6 | 0.00 | 0.00 | 0.00 | 59 | 1018.6 |
| 20260504003853 | 16 | 205 | 0.0 | 1.6 | 0.00 | 0.00 | 0.00 | 58 | 1018.6 |
| 20260504003352 | 16 | 205 | 1.6 | 1.6 | 0.00 | 0.00 | 0.00 | 59 | 1018.7 |
| 20260504002847 | 16 | 205 | 0.0 | 1.6 | 0.00 | 0.00 | 0.00 | 56 | 1018.7 |
| 20260504002348 | 17 | 205 | 0.0 | 1.6 | 0.00 | 0.00 | 0.00 | 55 | 1018.7 |
| 20260504001846 | 17 | 205 | 0.0 | 3.2 | 0.00 | 0.00 | 0.00 | 53 | 1018.7 |
| 20260504001346 | 17 | 205 | 1.6 | 4.8 | 0.00 | 0.00 | 0.00 | 51 | 1018.7 |
| 20260504000841 | 17 | 205 | 1.6 | 4.8 | 0.00 | 0.00 | 0.00 | 50 | 1018.7 |
| 20260503235841 | 17 | 209 | 0.0 | 3.2 | 0.00 | 0.00 | 0.00 | 54 | 1018.7 |
| 20260503235340 | 17 | 209 | 1.6 | 4.8 | 0.00 | 0.00 | 0.00 | 53 | 1018.8 |
| 20260503234838 | 17 | 209 | 0.0 | 4.8 | 0.00 | 0.00 | 0.00 | 54 | 1018.8 |
| 20260503234338 | 18 | 15 | 1.6 | 3.2 | 0.00 | 0.00 | 0.00 | 53 | 1018.7 |
| 20260503233853 | 18 | 15 | 0.0 | 3.2 | 0.00 | 0.00 | 0.00 | 53 | 1018.7 |
| 20260503233353 | 18 | 15 | 1.6 | 4.8 | 0.00 | 0.00 | 0.00 | 53 | 1018.8 |
| 20260503232845 | 18 | 9 | 1.6 | 4.8 | 0.00 | 0.00 | 0.00 | 53 | 1018.7 |
| 20260503232345 | 18 | 192 | 0.0 | 3.2 | 0.00 | 0.00 | 0.00 | 52 | 1018.7 |
| 20260503231330 | 18 | 192 | 1.6 | 8.0 | 0.00 | 0.00 | 0.00 | 50 | 1018.8 |
| 20260503230849 | 18 | 223 | 3.2 | 6.4 | 0.00 | 0.00 | 0.00 | 51 | 1018.8 |
| 20260503230348 | 18 | 194 | 1.6 | 4.8 | 0.00 | 0.00 | 0.00 | 50 | 1018.9 |
| 20260503225903 | 18 | 190 | 1.6 | 8.0 | 0.00 | 0.00 | 0.00 | 50 | 1018.9 |
| 20260503225341 | 18 | 190 | 4.8 | 8.0 | 0.00 | 0.00 | 0.00 | 50 | 1018.9 |
| 20260503224840 | 18 | 196 | 1.6 | 12.9 | 0.00 | 0.00 | 0.00 | 48 | 1018.9 |
| 20260503224400 | 19 | 165 | 4.8 | 12.9 | 0.00 | 0.00 | 0.00 | 48 | 1018.9 |
| 20260503223353 | 19 | 159 | 3.2 | 9.7 | 0.00 | 0.00 | 0.00 | 45 | 1018.9 |
| 20260503222846 | 19 | 144 | 1.6 | 16.1 | 0.00 | 0.00 | 0.00 | 46 | 1019.0 |
| 20260503222346 | 19 | 201 | 4.8 | 16.1 | 0.00 | 0.00 | 0.00 | 45 | 1019.0 |
| 20260503221845 | 19 | 198 | 4.8 | 11.3 | 0.00 | 0.00 | 0.00 | 45 | 1018.9 |
| 20260503221345 | 19 | 226 | 4.8 | 9.7 | 0.00 | 0.00 | 0.00 | 44 | 1019.1 |
| 20260503220903 | 20 | 188 | 1.6 | 16.1 | 0.00 | 0.00 | 0.00 | 48 | 1019.1 |
| 20260503220343 | 20 | 5 | 1.6 | 16.1 | 0.00 | 0.00 | 0.00 | 47 | 1019.1 |
| 20260503215836 | 20 | 173 | 3.2 | 9.7 | 0.00 | 0.00 | 0.00 | 45 | 1018.9 |
| 20260503215335 | 20 | 57 | 1.6 | 11.3 | 0.00 | 0.00 | 0.00 | 46 | 1019.0 |
| 20260503214832 | 20 | 213 | 8.0 | 11.3 | 0.00 | 0.00 | 0.00 | 45 | 1019.1 |
| 20260503214332 | 20 | 173 | 3.2 | 11.3 | 0.00 | 0.00 | 0.00 | 46 | 1019.1 |
| 20260503213830 | 20 | 238 | 3.2 | 11.3 | 0.00 | 0.00 | 0.00 | 44 | 1019.3 |
| 20260503213350 | 20 | 235 | 3.2 | 11.3 | 0.00 | 0.00 | 0.00 | 47 | 1019.3 |
| 20260503212846 | 20 | 337 | 1.6 | 12.9 | 0.00 | 0.00 | 0.00 | 44 | 1019.3 |
| 20260503212404 | 20 | 190 | 1.6 | 12.9 | 0.00 | 0.00 | 0.00 | 43 | 1019.4 |
| 20260503211846 | 20 | 263 | 4.8 | 14.5 | 0.00 | 0.00 | 0.00 | 44 | 1019.6 |
| 20260503211346 | 20 | 222 | 6.4 | 14.5 | 0.00 | 0.00 | 0.00 | 45 | 1019.7 |
| 20260503210841 | 20 | 225 | 1.6 | 11.3 | 0.00 | 0.00 | 0.00 | 44 | 1019.8 |
| 20260503210342 | 21 | 242 | 3.2 | 9.7 | 0.00 | 0.00 | 0.00 | 44 | 1019.7 |
| 20260503205835 | 21 | 195 | 3.2 | 11.3 | 0.00 | 0.00 | 0.00 | 45 | 1019.7 |
| 20260503205356 | 21 | 202 | 3.2 | 12.9 | 0.00 | 0.00 | 0.00 | 45 | 1019.8 |
| 20260503204830 | 21 | 9 | 4.8 | 14.5 | 0.00 | 0.00 | 0.00 | 44 | 1019.9 |
| 20260503204351 | 21 | 165 | 1.6 | 16.1 | 0.00 | 0.00 | 0.00 | 45 | 1019.9 |
| 20260503203830 | 20 | 174 | 6.4 | 16.1 | 0.00 | 0.00 | 0.00 | 45 | 1020.1 |
| 20260503203350 | 20 | 275 | 8.0 | 17.7 | 0.00 | 0.00 | 0.00 | 44 | 1020.1 |
| 20260503202907 | 20 | 191 | 9.7 | 17.7 | 0.00 | 0.00 | 0.00 | 44 | 1020.1 |
| 20260503202346 | 21 | 215 | 6.4 | 16.1 | 0.00 | 0.00 | 0.00 | 43 | 1020.4 |
| 20260503201842 | 21 | 190 | 4.8 | 14.5 | 0.00 | 0.00 | 0.00 | 45 | 1020.4 |
| 20260503201341 | 20 | 220 | 6.4 | 14.5 | 0.00 | 0.00 | 0.00 | 44 | 1020.5 |
| 20260503200900 | 20 | 198 | 3.2 | 14.5 | 0.00 | 0.00 | 0.00 | 43 | 1020.6 |
| 20260503200340 | 20 | 211 | 3.2 | 17.7 | 0.00 | 0.00 | 0.00 | 44 | 1020.6 |
| 20260503195835 | 20 | 228 | 8.0 | 17.7 | 0.00 | 0.00 | 0.00 | 42 | 1020.6 |
| 20260503195335 | 20 | 207 | 3.2 | 16.1 | 0.00 | 0.00 | 0.00 | 43 | 1020.8 |
| 20260503194838 | 20 | 115 | 6.4 | 16.1 | 0.00 | 0.00 | 0.00 | 43 | 1020.8 |
| 20260503194333 | 20 | 164 | 6.4 | 16.1 | 0.00 | 0.00 | 0.00 | 43 | 1020.8 |
| 20260503193830 | 20 | 175 | 4.8 | 19.3 | 0.00 | 0.00 | 0.00 | 41 | 1020.9 |
| 20260503193412 | 20 | 238 | 4.8 | 19.3 | 0.00 | 0.00 | 0.00 | 42 | 1021.0 |
| 20260503192842 | 20 | 228 | 4.8 | 11.3 | 0.00 | 0.00 | 0.00 | 41 | 1021.2 |
| 20260503192403 | 20 | 202 | 4.8 | 16.1 | 0.00 | 0.00 | 0.00 | 41 | 1021.1 |
| 20260503191838 | 20 | 234 | 4.8 | 16.1 | 0.00 | 0.00 | 0.00 | 42 | 1021.2 |
| 20260503191338 | 20 | 187 | 6.4 | 16.1 | 0.00 | 0.00 | 0.00 | 43 | 1021.3 |
| 20260503190854 | 20 | 207 | 6.4 | 16.1 | 0.00 | 0.00 | 0.00 | 42 | 1021.3 |
| 20260503190335 | 20 | 105 | 4.8 | 14.5 | 0.00 | 0.00 | 0.00 | 42 | 1021.4 |
| 20260503185848 | 20 | 183 | 1.6 | 14.5 | 0.00 | 0.00 | 0.00 | 44 | 1021.4 |
| 20260503185348 | 20 | 219 | 6.4 | 16.1 | 0.00 | 0.00 | 0.00 | 44 | 1021.6 |
| 20260503184846 | 20 | 284 | 4.8 | 14.5 | 0.00 | 0.00 | 0.00 | 45 | 1021.7 |
| 20260503184346 | 20 | 197 | 4.8 | 11.3 | 0.00 | 0.00 | 0.00 | 41 | 1021.6 |
| 20260503183901 | 19 | 217 | 3.2 | 16.1 | 0.00 | 0.00 | 0.00 | 47 | 1021.7 |
| 20260503183401 | 19 | 211 | 4.8 | 14.5 | 0.00 | 0.00 | 0.00 | 49 | 1021.8 |
| 20260503182834 | 18 | 263 | 6.4 | 16.1 | 0.00 | 0.00 | 0.00 | 47 | 1021.8 |
| 20260503182335 | 18 | 229 | 9.7 | 16.1 | 0.00 | 0.00 | 0.00 | 46 | 1021.9 |
| 20260503181852 | 18 | 47 | 6.4 | 16.1 | 0.00 | 0.00 | 0.00 | 49 | 1021.9 |
| 20260503181331 | 18 | 202 | 3.2 | 12.9 | 0.00 | 0.00 | 0.00 | 49 | 1022.1 |
| 20260503180850 | 18 | 236 | 4.8 | 11.3 | 0.00 | 0.00 | 0.00 | 50 | 1022.1 |
| 20260503180348 | 18 | 205 | 4.8 | 11.3 | 0.00 | 0.00 | 0.00 | 48 | 1022.2 |
| 20260503175846 | 18 | 285 | 4.8 | 14.5 | 0.00 | 0.00 | 0.00 | 48 | 1022.3 |
| 20260503175406 | 18 | 140 | 1.6 | 17.7 | 0.00 | 0.00 | 0.00 | 52 | 1022.4 |
| 20260503174842 | 18 | 128 | 4.8 | 17.7 | 0.00 | 0.00 | 0.00 | 48 | 1022.4 |
| 20260503174342 | 18 | 26 | 4.8 | 16.1 | 0.00 | 0.00 | 0.00 | 49 | 1022.4 |
| 20260503173837 | 18 | 77 | 4.8 | 16.1 | 0.00 | 0.00 | 0.00 | 49 | 1022.6 |
| 20260503173339 | 18 | 78 | 6.4 | 19.3 | 0.00 | 0.00 | 0.00 | 51 | 1022.7 |
| 20260503172832 | 17 | 218 | 9.7 | 19.3 | 0.00 | 0.00 | 0.00 | 53 | 1023.0 |
| 20260503172333 | 17 | 86 | 4.8 | 14.5 | 0.00 | 0.00 | 0.00 | 53 | 1023.0 |
| 20260503171831 | 17 | 206 | 8.0 | 16.1 | 0.00 | 0.00 | 0.00 | 53 | 1023.0 |
| 20260503171411 | 17 | 128 | 6.4 | 14.5 | 0.00 | 0.00 | 0.00 | 53 | 1023.1 |
| 20260503170848 | 17 | 103 | 8.0 | 14.5 | 0.00 | 0.00 | 0.00 | 51 | 1023.2 |
| 20260503170348 | 17 | 71 | 4.8 | 12.9 | 0.00 | 0.00 | 0.00 | 52 | 1023.3 |
| 20260503150853 | 15 | 103 | 6.4 | 11.3 | 0.00 | 0.00 | 0.00 | 57 | 1023.9 |
| 20260503150353 | 15 | 330 | 3.2 | 11.3 | 0.00 | 0.00 | 0.00 | 58 | 1024.0 |
| 20260503131331 | 12 | 5 | 3.2 | 14.5 | 0.00 | 0.00 | 0.00 | 69 | 1023.7 |
| 20260503130910 | 12 | 77 | 3.2 | 9.7 | 0.00 | 0.00 | 0.00 | 68 | 1023.6 |
| 20260503130348 | 12 | 90 | 4.8 | 12.9 | 0.00 | 0.00 | 0.00 | 70 | 1023.6 |
| 20260503110344 | 6 | 109 | 0.0 | 0.0 | 0.00 | 0.00 | 0.00 | 90 | 1022.7 |
| 20260503090336 | 7 | 56 | 0.0 | 3.2 | 0.00 | 0.00 | 0.00 | 85 | 1021.6 |
| 20260503081358 | 7 | 355 | 1.6 | 3.2 | 0.00 | 0.00 | 0.00 | 87 | 1021.2 |
| 20260503080835 | 7 | 317 | 1.6 | 3.2 | 0.00 | 0.00 | 0.00 | 87 | 1021.3 |
| 20260503080414 | 7 | 317 | 0.0 | 3.2 | 0.00 | 0.00 | 0.00 | 87 | 1021.2 |
| 20260503072832 | 7 | 317 | 1.6 | 3.2 | 0.00 | 0.00 | 0.00 | 87 | 1021.0 |
| 20260503072330 | 7 | 317 | 0.0 | 1.6 | 0.00 | 0.00 | 0.00 | 86 | 1021.0 |
| 20260503071831 | 7 | 317 | 0.0 | 1.6 | 0.00 | 0.00 | 0.00 | 86 | 1021.1 |
| 20260503071336 | 7 | 317 | 0.0 | 1.6 | 0.00 | 0.00 | 0.00 | 86 | 1021.0 |
| 20260503070831 | 8 | 317 | 1.6 | 1.6 | 0.00 | 0.00 | 0.00 | 86 | 1021.0 |
| 20260503070353 | 8 | 317 | 1.6 | 3.2 | 0.00 | 0.00 | 0.00 | 86 | 1021.0 |
| 20260503054847 | 8 | 317 | 0.0 | 0.0 | 0.00 | 0.00 | 0.00 | 83 | 1020.7 |
| 20260503054406 | 8 | 317 | 0.0 | 0.0 | 0.00 | 0.00 | 0.00 | 82 | 1020.8 |
| 20260503053841 | 8 | 317 | 0.0 | 0.0 | 0.00 | 0.00 | 0.00 | 82 | 1020.8 |
| 20260503053341 | 8 | 317 | 0.0 | 1.6 | 0.00 | 0.00 | 0.00 | 81 | 1020.8 |
| 20260503052855 | 8 | 317 | 0.0 | 3.2 | 0.00 | 0.00 | 0.00 | 81 | 1020.8 |
| 20260503052353 | 9 | 317 | 1.6 | 3.2 | 0.00 | 0.00 | 0.00 | 81 | 1020.7 |
| 20260503051848 | 9 | 317 | 1.6 | 1.6 | 0.00 | 0.00 | 0.00 | 80 | 1020.7 |
| 20260503051347 | 9 | 317 | 0.0 | 3.2 | 0.00 | 0.00 | 0.00 | 79 | 1020.6 |
| 20260503050846 | 9 | 317 | 1.6 | 4.8 | 0.00 | 0.00 | 0.00 | 79 | 1020.6 |
| 20260503050346 | 9 | 310 | 0.0 | 4.8 | 0.00 | 0.00 | 0.00 | 79 | 1020.6 |
| 20260503045841 | 9 | 174 | 0.0 | 1.6 | 0.00 | 0.00 | 0.00 | 79 | 1020.6 |
| 20260503045341 | 9 | 174 | 0.0 | 1.6 | 0.00 | 0.00 | 0.00 | 79 | 1020.6 |
| 20260503044839 | 9 | 174 | 0.0 | 3.2 | 0.00 | 0.00 | 0.00 | 78 | 1020.4 |
| 20260503044337 | 9 | 174 | 1.6 | 3.2 | 0.00 | 0.00 | 0.00 | 79 | 1020.3 |
| 20260503043835 | 9 | 174 | 1.6 | 3.2 | 0.00 | 0.00 | 0.00 | 78 | 1020.3 |
| 20260503043337 | 9 | 174 | 1.6 | 3.2 | 0.00 | 0.00 | 0.00 | 77 | 1020.3 |
| 20260503042831 | 9 | 174 | 1.6 | 1.6 | 0.00 | 0.00 | 0.00 | 77 | 1020.3 |
| 20260503042335 | 10 | 174 | 1.6 | 1.6 | 0.00 | 0.00 | 0.00 | 76 | 1020.3 |